Weather Roundup
Issued by NWS Chicago, IL

Home | Current Version | Previous Version | Graphics & Text | Print | Product List | Glossary On
Versions: 1 2 3 4 5 6 7 8 9 10 11 12 13 14 15 16 17 18 19 20 21 22 23 24 25 26 27 28 29 30 31 32 33 34 35 36 37 38 39 40 41 42 43 44 45 46 47 48 49 50
000
NZUS59 KLOT 251500
HRRLOT

CHICAGO AREA WEATHER ROUNDUP
NATIONAL WEATHER SERVICE CHICAGO/ROMEOVILLE IL
1000 AM CDT FRI JUL 25 2014

NOTE: "FAIR" INDICATES FEW OR NO CLOUDS BELOW 12,000 FEET WITH NO
SIGNIFICANT WEATHER AND/OR OBSTRUCTIONS TO VISIBILITY.

* THESE STATIONS ARE NOT UNDER NWS QUALITY CONTROL. THEY ALSO MAY NOT
  REPORT WEATHER SUCH AS PRECIPITATION OR FOG.

ILZ005-006-012>014-019>023-251600-
NORTHEAST ILLINOIS

CITY           SKY/WX    TMP DP  RH WIND       PRES   REMARKS
OHARE          CLOUDY    68  52  56 S10       30.02F
MIDWAY         CLOUDY    70  56  61 S8        30.03F
AURORA         CLOUDY    65  57  75 SE8       30.02F
WAUKEGAN       CLOUDY    67  54  63 S12       30.01F
DUPAGE AIRPORT CLOUDY    66  56  70 S12       30.02F
WHEELING       CLOUDY    70  54  56 SW10      30.04F
NORTHERLY IS   NOT AVBL
$$

WIZ051-052-058>065-066-070>072-251600-
SOUTHEAST WISCONSIN

CITY           SKY/WX    TMP DP  RH WIND       PRES   REMARKS
MILWAUKEE      CLOUDY    69  53  56 SW14      30.00F
KENOSHA*       CLOUDY    67  56  67 SW9       30.02S
RACINE*        CLOUDY    69  54  58 SW13      30.02F
WAUKESHA       MOSUNNY   64  54  68 S5        30.01F
$$

INZ001>003-010>013-019-020-251600-
NORTHWEST INDIANA

CITY           SKY/WX    TMP DP  RH WIND       PRES   REMARKS
GARY*          NOT AVBL
MICHIGAN CITY* NOT AVBL
RENSSELAER*    NOT AVBL
VALPARAISO     PTSUNNY   66  57  72 S6        30.06F
$$

LMZ740>746-251600-
SOUTHERN LAKE MICHIGAN

STATION/POSITION TIME  SKY/WX   TEMP WIND        PRES    VSBY
                                AIR  DIR/SP/G
                 (UTC)          (F)  (DEG/KT/KT) (MB)    (MI)
HARRISON CRIB    1400            65  190/ 12/ 14   N/A
BURNHAM HARBOR   NOT AVBL
CALUMET HARBOR   1400            66  180/  6/  8 1015.9F
BURNS HARBOR     1400            65  190/ 10/ 14 1019.0
MICHIGAN CITY    1400            64  170/  6/  8   N/A
$$

ABBREVIATIONS USED IN REMARKS
   TC - TEMPERATURE IN CELSIUS
  WCI - WIND CHILL INDEX
   HX - HEAT INDEX
  VSB - VISIBILITY
$$



USA.gov is the U.S. government's official web portal to all federal, state and local government web resources and services.